L’AEROCLUB LOUDUNAIS ET L’ANEG PARTENAIRES DU TELETHON 2020

OFFREZ VOUS OU OFFREZ A VOS PROCHES

UN VOL DE DECOUVERTE EN

CHARIOT ASCENSIONNEL, EN AVION OU EN ULM

Un cadeau de Noël extraordinaire doublé d’une action envers le Téléthon

Information en heures locale pour LFDL
27 February 2021

Metar
LFBI 271130Z AUTO 04014KT 010V070 9999 FEW037 10/01 Q1035 TEMPO 04015G25KT

Lever du soleil : 07:43

Coucher du soleil : 18:40

Actualité

Nous sommes heureux d’accueillir un ULM Savannah au sein de notre flotte. Grace à cet appareil, vous pourrez découvrir une …

Bonjour tout le monde !

Bienvenue à tous, l’ Aéroclub Loudunais vous accueille sur son nouveau site internet.

Newsletter Sign Up

Praesent libero sed cursus anted dapibus diam